Time,TemperatureF,DewpointF,PressureIn,WindDirection,WindDirectionDegrees,WindSpeedMPH,WindSpeedGustMPH,Humidity,HourlyPrecipIn,Conditions,Clouds,dailyrainin,SoftwareType,DateUTC
2013-01-21 00:01:00,14.9,4.2,30.15,NNW,338,2.5,3.4,62,0.00,,---,0.00,VWS V14.01,2013-01-21 06:01:00,
2013-01-21 00:06:00,15.1,4.4,30.18,West,270,3.4,3.4,62,0.00,,---,0.00,VWS V14.01,2013-01-21 06:06:00,
2013-01-21 00:11:00,15.1,4.4,30.18,West,270,3.6,3.6,62,0.00,,---,0.00,VWS V14.01,2013-01-21 06:11:00,
2013-01-21 00:16:00,15.1,4.4,30.18,NNW,338,2.0,3.1,62,0.00,,---,0.00,VWS V14.01,2013-01-21 06:16:00,
2013-01-21 00:21:00,15.3,4.6,30.18,NW,315,1.6,1.6,62,0.00,,---,0.00,VWS V14.01,2013-01-21 06:21:00,
2013-01-21 00:26:00,15.3,4.6,30.18,WNW,292,3.6,3.6,62,0.00,,---,0.00,VWS V14.01,2013-01-21 06:26:00,
2013-01-21 00:31:00,15.3,4.6,30.18,WNW,292,3.6,3.6,62,0.00,,---,0.00,VWS V14.01,2013-01-21 06:31:00,
2013-01-21 00:36:00,15.3,4.6,30.18,WNW,292,3.8,3.8,62,0.00,,---,0.00,VWS V14.01,2013-01-21 06:36:00,
2013-01-21 00:41:00,15.3,4.6,30.18,WNW,292,2.5,3.1,62,0.00,,---,0.00,VWS V14.01,2013-01-21 06:41:00,
2013-01-21 00:46:00,15.4,4.8,30.18,NW,315,6.5,6.5,62,0.00,,---,0.00,VWS V14.01,2013-01-21 06:46:00,
2013-01-21 00:51:00,15.4,4.8,30.18,SSW,202,2.7,2.7,62,0.00,,---,0.00,VWS V14.01,2013-01-21 06:51:00,
2013-01-21 00:56:00,15.6,4.9,30.18,WNW,292,4.9,4.9,62,0.00,,---,0.00,VWS V14.01,2013-01-21 06:56:00,
2013-01-21 01:01:00,15.8,5.1,30.18,WNW,292,7.6,7.6,62,0.00,,---,0.00,VWS V14.01,2013-01-21 07:01:00,
2013-01-21 01:06:00,15.8,4.8,30.18,NW,315,5.6,5.6,61,0.00,,---,0.00,VWS V14.01,2013-01-21 07:06:00,
2013-01-21 01:11:00,15.8,4.4,30.18,NW,315,6.3,6.3,60,0.00,,---,0.00,VWS V14.01,2013-01-21 07:11:00,
2013-01-21 01:16:00,15.8,4.4,30.18,NNW,338,6.5,6.5,60,0.00,,---,0.00,VWS V14.01,2013-01-21 07:16:00,
2013-01-21 01:21:00,15.6,3.8,30.18,NW,315,4.9,5.6,59,0.00,,---,0.00,VWS V14.01,2013-01-21 07:21:00,
2013-01-21 01:27:00,15.6,3.8,30.18,NW,315,5.6,7.6,59,0.00,,---,0.00,VWS V14.01,2013-01-21 07:27:00,
2013-01-21 01:32:00,15.4,3.3,30.18,North,0,3.4,3.4,58,0.00,,---,0.00,VWS V14.01,2013-01-21 07:32:00,
2013-01-21 01:37:00,15.3,3.2,30.18,North,0,5.6,5.6,58,0.00,,---,0.00,VWS V14.01,2013-01-21 07:37:00,
2013-01-21 01:42:00,15.3,3.2,30.18,NW,315,5.4,5.4,58,0.00,,---,0.00,VWS V14.01,2013-01-21 07:42:00,
2013-01-21 01:47:00,15.1,3.0,30.18,North,0,4.9,4.9,58,0.00,,---,0.00,VWS V14.01,2013-01-21 07:47:00,
2013-01-21 01:52:00,15.1,3.0,30.18,WNW,292,2.9,2.9,58,0.00,,---,0.00,VWS V14.01,2013-01-21 07:52:00,
2013-01-21 01:57:00,15.1,3.0,30.18,NNW,338,2.7,4.0,58,0.00,,---,0.00,VWS V14.01,2013-01-21 07:57:00,
2013-01-21 02:02:00,14.9,3.2,30.18,NNW,338,3.4,3.4,59,0.00,,---,0.00,VWS V14.01,2013-01-21 08:02:00,
2013-01-21 02:07:00,14.9,3.2,30.18,WNW,292,2.5,4.9,59,0.00,,---,0.00,VWS V14.01,2013-01-21 08:07:00,
2013-01-21 02:12:00,14.9,3.2,30.18,WNW,292,5.6,5.6,59,0.00,,---,0.00,VWS V14.01,2013-01-21 08:12:00,
2013-01-21 02:17:00,14.5,2.5,30.18,WNW,292,7.6,7.6,58,0.00,,---,0.00,VWS V14.01,2013-01-21 08:17:00,
2013-01-21 02:22:00,14.4,2.3,30.18,North,0,11.9,11.9,58,0.00,,---,0.00,VWS V14.01,2013-01-21 08:22:00,
2013-01-21 02:27:00,14.4,2.3,30.18,NNE,22,2.7,2.7,58,0.00,,---,0.00,VWS V14.01,2013-01-21 08:27:00,
2013-01-21 02:32:00,14.2,2.1,30.18,NNW,338,4.3,4.3,58,0.00,,---,0.00,VWS V14.01,2013-01-21 08:32:00,
2013-01-21 02:37:00,14.4,2.3,30.18,NNW,338,5.6,5.6,58,0.00,,---,0.00,VWS V14.01,2013-01-21 08:37:00,
2013-01-21 02:42:00,14.2,2.1,30.18,NNW,338,4.9,4.9,58,0.00,,---,0.00,VWS V14.01,2013-01-21 08:42:00,
2013-01-21 02:47:00,14.2,1.8,30.18,NNW,338,2.9,3.8,57,0.00,,---,0.00,VWS V14.01,2013-01-21 08:47:00,
2013-01-21 02:52:00,14.2,1.8,30.18,NW,315,7.4,7.4,57,0.00,,---,0.00,VWS V14.01,2013-01-21 08:52:00,
2013-01-21 02:57:00,14.0,1.6,30.18,NNW,338,6.3,6.3,57,0.00,,---,0.00,VWS V14.01,2013-01-21 08:57:00,
2013-01-21 03:02:00,13.8,1.4,30.18,NE,45,3.8,4.3,57,0.00,,---,0.00,VWS V14.01,2013-01-21 09:02:00,
2013-01-21 03:07:00,13.5,1.1,30.18,ENE,68,3.8,3.8,57,0.00,,---,0.00,VWS V14.01,2013-01-21 09:07:00,
2013-01-21 03:12:00,13.3,0.9,30.18,NNE,22,4.7,4.7,57,0.00,,---,0.00,VWS V14.01,2013-01-21 09:12:00,
2013-01-21 03:17:00,12.9,0.6,30.18,NNW,338,1.3,1.3,57,0.00,,---,0.00,VWS V14.01,2013-01-21 09:17:00,
2013-01-21 03:22:00,12.7,0.4,30.18,NNW,338,11.0,11.0,57,0.00,,---,0.00,VWS V14.01,2013-01-21 09:22:00,
2013-01-21 03:27:00,12.6,0.2,30.18,NW,315,3.1,4.0,57,0.00,,---,0.00,VWS V14.01,2013-01-21 09:27:00,
2013-01-21 03:32:00,12.6,0.2,30.18,NNW,338,4.9,4.9,57,0.00,,---,0.00,VWS V14.01,2013-01-21 09:32:00,
2013-01-21 03:37:00,12.2,-0.1,30.18,WNW,292,5.8,5.8,57,0.00,,---,0.00,VWS V14.01,2013-01-21 09:37:00,
2013-01-21 03:42:00,12.0,-0.3,30.18,NW,315,7.8,7.8,57,0.00,,---,0.00,VWS V14.01,2013-01-21 09:42:00,
2013-01-21 03:47:00,12.0,-0.3,30.18,NW,315,4.0,4.0,57,0.00,,---,0.00,VWS V14.01,2013-01-21 09:47:00,
2013-01-21 03:52:00,11.8,-0.4,30.18,WNW,292,9.0,9.0,57,0.00,,---,0.00,VWS V14.01,2013-01-21 09:52:00,
2013-01-21 03:57:00,12.0,-0.3,30.18,NE,45,4.9,4.9,57,0.00,,---,0.00,VWS V14.01,2013-01-21 09:57:00,
2013-01-21 04:02:00,12.0,-0.3,30.18,East,90,3.4,3.4,57,0.00,,---,0.00,VWS V14.01,2013-01-21 10:02:00,
2013-01-21 04:07:00,12.0,-0.3,30.18,NNW,338,3.4,4.9,57,0.00,,---,0.00,VWS V14.01,2013-01-21 10:07:00,
2013-01-21 04:12:00,12.0,-0.3,30.18,West,270,8.7,8.7,57,0.00,,---,0.00,VWS V14.01,2013-01-21 10:12:00,
2013-01-21 04:17:00,12.0,-0.3,30.18,West,270,6.5,6.5,57,0.00,,---,0.00,VWS V14.01,2013-01-21 10:17:00,
2013-01-21 04:22:00,12.0,-0.3,30.18,NE,45,9.6,9.6,57,0.00,,---,0.00,VWS V14.01,2013-01-21 10:22:00,
2013-01-21 04:27:00,12.0,-0.3,30.18,NW,315,9.4,9.4,57,0.00,,---,0.00,VWS V14.01,2013-01-21 10:27:00,
2013-01-21 04:32:00,12.0,-0.3,30.18,NNW,338,5.4,5.4,57,0.00,,---,0.00,VWS V14.01,2013-01-21 10:32:00,
2013-01-21 04:37:00,12.0,-0.3,30.18,WNW,292,6.0,6.0,57,0.00,,---,0.00,VWS V14.01,2013-01-21 10:37:00,
2013-01-21 04:43:00,11.8,-0.4,30.18,WNW,292,3.8,3.8,57,0.00,,---,0.00,VWS V14.01,2013-01-21 10:43:00,
2013-01-21 04:48:00,11.8,-0.4,30.18,East,90,4.3,4.9,57,0.00,,---,0.00,VWS V14.01,2013-01-21 10:48:00,
2013-01-21 04:53:00,11.5,-0.8,30.18,WNW,292,3.8,7.8,57,0.00,,---,0.00,VWS V14.01,2013-01-21 10:53:00,
2013-01-21 04:58:00,11.1,-1.1,30.18,WNW,292,6.0,6.0,57,0.00,,---,0.00,VWS V14.01,2013-01-21 10:58:00,
2013-01-21 05:03:00,10.6,-1.6,30.18,NNW,338,5.6,7.8,57,0.00,,---,0.00,VWS V14.01,2013-01-21 11:03:00,
2013-01-21 05:08:00,10.2,-2.0,30.18,WNW,292,9.0,9.0,57,0.00,,---,0.00,VWS V14.01,2013-01-21 11:08:00,
2013-01-21 05:13:00,10.0,-2.1,30.18,SW,225,5.8,5.8,57,0.00,,---,0.00,VWS V14.01,2013-01-21 11:13:00,
2013-01-21 05:18:00,9.7,-2.5,30.18,WNW,292,7.4,7.4,57,0.00,,---,0.00,VWS V14.01,2013-01-21 11:18:00,
2013-01-21 05:23:00,9.5,-2.7,30.18,NNE,22,7.8,7.8,57,0.00,,---,0.00,VWS V14.01,2013-01-21 11:23:00,
2013-01-21 05:28:00,9.3,-2.8,30.18,WNW,292,8.7,8.7,57,0.00,,---,0.00,VWS V14.01,2013-01-21 11:28:00,
2013-01-21 05:33:00,9.3,-2.8,30.18,NNW,338,3.6,6.0,57,0.00,,---,0.00,VWS V14.01,2013-01-21 11:33:00,
2013-01-21 05:38:00,9.1,-3.0,30.18,NNW,338,10.5,10.5,57,0.00,,---,0.00,VWS V14.01,2013-01-21 11:38:00,
2013-01-21 05:43:00,9.0,-3.2,30.18,NNE,22,3.6,3.6,57,0.00,,---,0.00,VWS V14.01,2013-01-21 11:43:00,
2013-01-21 05:48:00,9.0,-3.2,30.18,NW,315,6.0,6.0,57,0.00,,---,0.00,VWS V14.01,2013-01-21 11:48:00,
2013-01-21 05:53:00,8.8,-3.3,30.18,NE,45,2.0,2.0,57,0.00,,---,0.00,VWS V14.01,2013-01-21 11:53:00,
2013-01-21 05:58:00,8.6,-3.5,30.18,SSW,202,3.8,3.8,57,0.00,,---,0.00,VWS V14.01,2013-01-21 11:58:00,
2013-01-21 06:03:00,8.6,-3.5,30.18,North,0,2.5,6.0,57,0.00,,---,0.00,VWS V14.01,2013-01-21 12:03:00,
2013-01-21 06:08:00,8.4,-3.7,30.18,NNE,22,4.9,4.9,57,0.00,,---,0.00,VWS V14.01,2013-01-21 12:08:00,
2013-01-21 06:13:00,8.4,-3.7,30.18,NNW,338,2.9,2.9,57,0.00,,---,0.00,VWS V14.01,2013-01-21 12:13:00,
2013-01-21 06:18:00,8.1,-4.0,30.18,WSW,248,2.7,3.1,57,0.00,,---,0.00,VWS V14.01,2013-01-21 12:18:00,
2013-01-21 06:23:00,8.1,-4.0,30.18,NNW,338,12.1,12.1,57,0.00,,---,0.00,VWS V14.01,2013-01-21 12:23:00,
2013-01-21 06:28:00,7.7,-4.3,30.18,NNW,338,3.8,3.8,57,0.00,,---,0.00,VWS V14.01,2013-01-21 12:28:00,
2013-01-21 06:33:00,7.7,-4.3,30.18,NNE,22,8.7,8.7,57,0.00,,---,0.00,VWS V14.01,2013-01-21 12:33:00,
2013-01-21 06:38:00,7.5,-4.5,30.18,NNW,338,6.0,6.0,57,0.00,,---,0.00,VWS V14.01,2013-01-21 12:38:00,
2013-01-21 06:43:00,7.5,-4.5,30.18,NNW,338,1.6,1.6,57,0.00,,---,0.00,VWS V14.01,2013-01-21 12:43:00,
2013-01-21 06:48:00,7.2,-4.9,30.21,NW,315,3.8,5.4,57,0.00,,---,0.00,VWS V14.01,2013-01-21 12:48:00,
2013-01-21 06:53:00,7.0,-5.0,30.21,WNW,292,3.1,3.1,57,0.00,,---,0.00,VWS V14.01,2013-01-21 12:53:00,
2013-01-21 06:58:00,6.8,-5.2,30.21,NNE,22,3.4,3.4,57,0.00,,---,0.00,VWS V14.01,2013-01-21 12:58:00,
2013-01-21 07:03:00,6.6,-5.4,30.21,West,270,3.4,3.6,57,0.00,,---,0.00,VWS V14.01,2013-01-21 13:03:00,
2013-01-21 07:08:00,6.4,-5.5,30.21,WSW,248,2.9,2.9,57,0.00,,---,0.00,VWS V14.01,2013-01-21 13:08:00,
2013-01-21 07:13:00,6.3,-5.7,30.21,ENE,68,3.4,3.4,57,0.00,,---,0.00,VWS V14.01,2013-01-21 13:13:00,
2013-01-21 07:18:00,6.1,-5.9,30.21,NNW,338,2.7,5.4,57,0.00,,---,0.00,VWS V14.01,2013-01-21 13:18:00,
2013-01-21 07:23:00,5.9,-6.0,30.21,NW,315,3.8,3.8,57,0.00,,---,0.00,VWS V14.01,2013-01-21 13:23:00,
2013-01-21 07:28:00,5.9,-6.0,30.21,NNE,22,2.2,5.8,57,0.00,,---,0.00,VWS V14.01,2013-01-21 13:28:00,
2013-01-21 07:33:00,5.7,-6.2,30.21,ENE,68,2.9,3.4,57,0.00,,---,0.00,VWS V14.01,2013-01-21 13:33:00,
2013-01-21 07:38:00,5.7,-6.2,30.21,SW,225,4.3,4.3,57,0.00,,---,0.00,VWS V14.01,2013-01-21 13:38:00,
2013-01-21 07:43:00,5.5,-6.4,30.21,North,0,2.9,3.1,57,0.00,,---,0.00,VWS V14.01,2013-01-21 13:43:00,
2013-01-21 07:48:00,5.7,-6.2,30.21,NNE,22,4.9,4.9,57,0.00,,---,0.00,VWS V14.01,2013-01-21 13:48:00,
2013-01-21 07:53:00,5.5,-6.4,30.21,WNW,292,2.9,3.1,57,0.00,,---,0.00,VWS V14.01,2013-01-21 13:53:00,
2013-01-21 07:58:00,5.5,-6.4,30.21,WNW,292,1.6,1.6,57,0.00,,---,0.00,VWS V14.01,2013-01-21 13:58:00,
2013-01-21 08:04:00,5.5,-6.4,30.21,NNW,338,3.4,3.4,57,0.00,,---,0.00,VWS V14.01,2013-01-21 14:04:00,
2013-01-21 08:09:00,5.7,-6.2,30.21,NNW,338,4.0,4.0,57,0.00,,---,0.00,VWS V14.01,2013-01-21 14:09:00,
2013-01-21 08:14:00,5.5,-6.4,30.21,NNE,22,4.3,4.3,57,0.00,,---,0.00,VWS V14.01,2013-01-21 14:14:00,
2013-01-21 08:19:00,5.5,-6.4,30.21,NNW,338,2.9,2.9,57,0.00,,---,0.00,VWS V14.01,2013-01-21 14:19:00,
2013-01-21 08:24:00,5.5,-6.4,30.21,NNW,338,2.7,3.8,57,0.00,,---,0.00,VWS V14.01,2013-01-21 14:24:00,
2013-01-21 08:29:00,5.4,-6.6,30.21,NNW,338,2.0,2.7,57,0.00,,---,0.00,VWS V14.01,2013-01-21 14:29:00,
2013-01-21 08:34:00,5.5,-6.4,30.21,ENE,68,2.0,2.0,57,0.00,,---,0.00,VWS V14.01,2013-01-21 14:34:00,
2013-01-21 08:39:00,5.5,-6.4,30.21,NNW,338,2.0,2.9,57,0.00,,---,0.00,VWS V14.01,2013-01-21 14:39:00,
2013-01-21 08:44:00,5.5,-6.4,30.21,NNW,338,3.4,3.8,57,0.00,,---,0.00,VWS V14.01,2013-01-21 14:44:00,
2013-01-21 08:49:00,5.7,-6.2,30.21,WNW,292,1.3,5.8,57,0.00,,---,0.00,VWS V14.01,2013-01-21 14:49:00,
2013-01-21 08:54:00,5.7,-6.2,30.21,NNW,338,2.9,3.4,57,0.00,,---,0.00,VWS V14.01,2013-01-21 14:54:00,
2013-01-21 08:59:00,5.9,-6.0,30.21,WNW,292,3.6,3.6,57,0.00,,---,0.00,VWS V14.01,2013-01-21 14:59:00,
2013-01-21 09:04:00,5.9,-6.0,30.21,WSW,248,2.7,2.7,57,0.00,,---,0.00,VWS V14.01,2013-01-21 15:04:00,
2013-01-21 09:09:00,5.9,-6.0,30.21,WNW,292,2.7,4.9,57,0.00,,---,0.00,VWS V14.01,2013-01-21 15:09:00,
2013-01-21 09:14:00,6.1,-5.9,30.21,WNW,292,1.1,1.1,57,0.00,,---,0.00,VWS V14.01,2013-01-21 15:14:00,
2013-01-21 09:19:00,6.3,-5.7,30.21,NW,315,5.4,5.4,57,0.00,,---,0.00,VWS V14.01,2013-01-21 15:19:00,
2013-01-21 09:24:00,6.3,-5.7,30.21,WNW,292,3.1,3.6,57,0.00,,---,0.00,VWS V14.01,2013-01-21 15:24:00,
2013-01-21 09:29:00,6.4,-5.5,30.21,NW,315,3.4,6.3,57,0.00,,---,0.00,VWS V14.01,2013-01-21 15:29:00,
2013-01-21 09:34:00,6.8,-5.2,30.21,NE,45,3.1,3.1,57,0.00,,---,0.00,VWS V14.01,2013-01-21 15:34:00,
2013-01-21 09:39:00,7.0,-5.0,30.21,NW,315,2.7,3.6,57,0.00,,---,0.00,VWS V14.01,2013-01-21 15:39:00,
2013-01-21 09:44:00,7.3,-4.7,30.21,North,0,3.4,3.4,57,0.00,,---,0.00,VWS V14.01,2013-01-21 15:44:00,
2013-01-21 09:49:00,7.3,-4.7,30.21,WNW,292,4.3,4.3,57,0.00,,---,0.00,VWS V14.01,2013-01-21 15:49:00,
2013-01-21 09:54:00,7.5,-4.5,30.21,NW,315,2.0,2.0,57,0.00,,---,0.00,VWS V14.01,2013-01-21 15:54:00,
2013-01-21 09:59:00,7.3,-4.7,30.21,WNW,292,6.5,6.5,57,0.00,,---,0.00,VWS V14.01,2013-01-21 15:59:00,
2013-01-21 10:04:00,7.3,-4.7,30.24,NE,45,3.1,3.1,57,0.00,,---,0.00,VWS V14.01,2013-01-21 16:04:00,
2013-01-21 10:09:00,7.5,-4.5,30.24,WNW,292,1.3,1.3,57,0.00,,---,0.00,VWS V14.01,2013-01-21 16:09:00,
2013-01-21 10:14:00,7.5,-4.5,30.24,South,180,1.1,1.1,57,0.00,,---,0.00,VWS V14.01,2013-01-21 16:14:00,
2013-01-21 10:19:00,7.5,-4.5,30.24,NW,315,2.9,2.9,57,0.00,,---,0.00,VWS V14.01,2013-01-21 16:19:00,
2013-01-21 10:24:00,7.5,-4.5,30.24,NNW,338,5.6,5.6,57,0.00,,---,0.00,VWS V14.01,2013-01-21 16:24:00,
2013-01-21 10:29:00,7.5,-4.5,30.24,North,0,4.0,4.0,57,0.00,,---,0.00,VWS V14.01,2013-01-21 16:29:00,
2013-01-21 10:34:00,7.3,-4.7,30.24,NNW,338,8.5,8.5,57,0.00,,---,0.00,VWS V14.01,2013-01-21 16:34:00,
2013-01-21 10:39:00,7.5,-4.5,30.24,WNW,292,3.4,4.3,57,0.00,,---,0.00,VWS V14.01,2013-01-21 16:39:00,
2013-01-21 10:44:00,7.7,-4.3,30.24,NNE,22,3.4,3.4,57,0.00,,---,0.00,VWS V14.01,2013-01-21 16:44:00,
2013-01-21 10:49:00,8.1,-4.0,30.24,SSW,202,2.7,2.7,57,0.00,,---,0.00,VWS V14.01,2013-01-21 16:49:00,
2013-01-21 10:54:00,8.1,-4.0,30.24,WNW,292,4.5,4.5,57,0.00,,---,0.00,VWS V14.01,2013-01-21 16:54:00,
2013-01-21 10:59:00,8.1,-4.0,30.24,ESE,112,2.5,2.5,57,0.00,,---,0.00,VWS V14.01,2013-01-21 16:59:00,
2013-01-21 11:04:00,8.1,-4.0,30.24,WNW,292,4.0,4.0,57,0.00,,---,0.00,VWS V14.01,2013-01-21 17:04:00,
2013-01-21 11:09:00,8.1,-4.0,30.24,WNW,292,2.5,2.9,57,0.00,,---,0.00,VWS V14.01,2013-01-21 17:09:00,
2013-01-21 11:14:00,8.2,-3.8,30.21,NNW,338,3.6,3.6,57,0.00,,---,0.00,VWS V14.01,2013-01-21 17:14:00,
2013-01-21 11:19:00,8.2,-3.8,30.21,NNW,338,2.7,4.9,57,0.00,,---,0.00,VWS V14.01,2013-01-21 17:19:00,
2013-01-21 11:24:00,8.1,-4.0,30.21,ESE,112,2.2,2.2,57,0.00,,---,0.00,VWS V14.01,2013-01-21 17:24:00,
2013-01-21 11:29:00,8.2,-3.8,30.21,WNW,292,3.4,3.4,57,0.00,,---,0.00,VWS V14.01,2013-01-21 17:29:00,
2013-01-21 11:34:00,8.4,-3.7,30.21,NW,315,4.9,6.0,57,0.00,,---,0.00,VWS V14.01,2013-01-21 17:34:00,
2013-01-21 11:39:00,8.6,-3.5,30.21,WNW,292,4.5,4.5,57,0.00,,---,0.00,VWS V14.01,2013-01-21 17:39:00,
2013-01-21 11:44:00,8.6,-3.5,30.21,NNW,338,6.0,6.0,57,0.00,,---,0.00,VWS V14.01,2013-01-21 17:44:00,
2013-01-21 11:49:00,8.8,-3.3,30.21,East,90,3.8,3.8,57,0.00,,---,0.00,VWS V14.01,2013-01-21 17:49:00,
2013-01-21 11:54:00,8.8,-3.3,30.21,NNW,338,6.5,6.5,57,0.00,,---,0.00,VWS V14.01,2013-01-21 17:54:00,
2013-01-21 12:00:00,8.8,-3.3,30.21,ENE,68,5.6,5.6,57,0.00,,---,0.00,VWS V14.01,2013-01-21 18:00:00,
2013-01-21 12:05:00,8.8,-3.3,30.21,NNW,338,3.8,3.8,57,0.00,,---,0.00,VWS V14.01,2013-01-21 18:05:00,
2013-01-21 12:10:00,8.8,-3.3,30.21,NNW,338,4.7,4.7,57,0.00,,---,0.00,VWS V14.01,2013-01-21 18:10:00,
2013-01-21 12:15:00,9.0,-3.2,30.21,NNW,338,2.5,2.5,57,0.00,,---,0.00,VWS V14.01,2013-01-21 18:15:00,
2013-01-21 12:20:00,9.1,-3.0,30.21,NW,315,2.7,3.1,57,0.00,,---,0.00,VWS V14.01,2013-01-21 18:20:00,
2013-01-21 12:25:00,9.3,-2.8,30.21,WNW,292,5.8,5.8,57,0.00,,---,0.00,VWS V14.01,2013-01-21 18:25:00,
2013-01-21 12:30:00,9.3,-2.8,30.21,WNW,292,4.7,4.7,57,0.00,,---,0.00,VWS V14.01,2013-01-21 18:30:00,
2013-01-21 12:35:00,9.5,-2.7,30.21,NW,315,2.7,3.8,57,0.00,,---,0.00,VWS V14.01,2013-01-21 18:35:00,
2013-01-21 12:40:00,9.5,-2.7,30.21,WNW,292,4.9,4.9,57,0.00,,---,0.00,VWS V14.01,2013-01-21 18:40:00,
2013-01-21 12:45:00,9.5,-2.7,30.21,NW,315,3.1,5.8,57,0.00,,---,0.00,VWS V14.01,2013-01-21 18:45:00,
2013-01-21 12:50:00,9.7,-2.5,30.18,NNW,338,1.3,1.3,57,0.00,,---,0.00,VWS V14.01,2013-01-21 18:50:00,
2013-01-21 12:55:00,10.4,-1.8,30.18,WNW,292,4.7,6.3,57,0.00,,---,0.00,VWS V14.01,2013-01-21 18:55:00,
2013-01-21 13:00:00,10.4,-1.8,30.18,NNW,338,3.4,3.4,57,0.00,,---,0.00,VWS V14.01,2013-01-21 19:00:00,
2013-01-21 13:05:00,10.8,-1.5,30.18,NNW,338,3.1,4.7,57,0.00,,---,0.00,VWS V14.01,2013-01-21 19:05:00,
2013-01-21 13:10:00,10.8,-1.5,30.18,WNW,292,3.1,3.1,57,0.00,,---,0.00,VWS V14.01,2013-01-21 19:10:00,
2013-01-21 13:15:00,10.8,-1.5,30.18,NNW,338,2.9,3.1,57,0.00,,---,0.00,VWS V14.01,2013-01-21 19:15:00,
2013-01-21 13:20:00,10.9,-1.3,30.18,NW,315,2.7,2.7,57,0.00,,---,0.00,VWS V14.01,2013-01-21 19:20:00,
2013-01-21 13:25:00,11.1,-1.1,30.18,NNW,338,3.4,3.4,57,0.00,,---,0.00,VWS V14.01,2013-01-21 19:25:00,
2013-01-21 13:30:00,11.1,-1.1,30.18,NNW,338,2.5,4.9,57,0.00,,---,0.00,VWS V14.01,2013-01-21 19:30:00,
2013-01-21 13:35:00,11.1,-1.1,30.18,NW,315,7.4,7.4,57,0.00,,---,0.00,VWS V14.01,2013-01-21 19:35:00,
2013-01-21 13:40:00,10.9,-1.3,30.18,NNW,338,2.7,3.6,57,0.00,,---,0.00,VWS V14.01,2013-01-21 19:40:00,
2013-01-21 13:45:00,11.7,-0.6,30.18,West,270,4.9,4.9,57,0.00,,---,0.00,VWS V14.01,2013-01-21 19:45:00,
2013-01-21 13:50:00,12.0,-0.3,30.18,WNW,292,3.8,3.8,57,0.00,,---,0.00,VWS V14.01,2013-01-21 19:50:00,
2013-01-21 13:55:00,12.4,0.1,30.18,ENE,68,3.6,3.6,57,0.00,,---,0.00,VWS V14.01,2013-01-21 19:55:00,
2013-01-21 14:00:00,12.4,0.1,30.18,NNW,338,4.5,4.5,57,0.00,,---,0.00,VWS V14.01,2013-01-21 20:00:00,
2013-01-21 14:05:00,12.6,0.2,30.18,SSW,202,4.0,4.0,57,0.00,,---,0.00,VWS V14.01,2013-01-21 20:05:00,
2013-01-21 14:10:00,13.3,0.9,30.18,WNW,292,3.4,3.4,57,0.00,,---,0.00,VWS V14.01,2013-01-21 20:10:00,
2013-01-21 14:15:00,13.6,1.2,30.18,NW,315,4.0,4.0,57,0.00,,---,0.00,VWS V14.01,2013-01-21 20:15:00,
2013-01-21 14:20:00,13.5,1.1,30.15,NW,315,4.0,4.0,57,0.00,,---,0.00,VWS V14.01,2013-01-21 20:20:00,
2013-01-21 14:25:00,13.5,1.1,30.15,NW,315,2.9,4.3,57,0.00,,---,0.00,VWS V14.01,2013-01-21 20:25:00,
2013-01-21 14:30:00,13.5,1.1,30.15,NNE,22,3.1,3.1,57,0.00,,---,0.00,VWS V14.01,2013-01-21 20:30:00,
2013-01-21 14:35:00,13.5,1.1,30.15,WNW,292,3.4,3.4,57,0.00,,---,0.00,VWS V14.01,2013-01-21 20:35:00,
2013-01-21 14:40:00,13.5,1.1,30.15,West,270,4.3,4.3,57,0.00,,---,0.00,VWS V14.01,2013-01-21 20:40:00,
2013-01-21 14:45:00,13.5,1.1,30.15,NW,315,3.1,3.1,57,0.00,,---,0.00,VWS V14.01,2013-01-21 20:45:00,
2013-01-21 14:50:00,12.9,0.6,30.18,NW,315,3.6,3.6,57,0.00,,---,0.00,VWS V14.01,2013-01-21 20:50:00,
2013-01-21 14:55:00,12.6,0.2,30.18,NNW,338,1.1,1.1,57,0.00,,---,0.00,VWS V14.01,2013-01-21 20:55:00,
2013-01-21 15:00:00,12.2,-0.1,30.18,WNW,292,4.9,4.9,57,0.00,,---,0.00,VWS V14.01,2013-01-21 21:00:00,
2013-01-21 15:05:00,12.0,-0.3,30.18,NW,315,2.0,2.5,57,0.00,,---,0.00,VWS V14.01,2013-01-21 21:05:00,
2013-01-21 15:10:00,12.0,-0.3,30.18,WNW,292,3.4,3.4,57,0.00,,---,0.00,VWS V14.01,2013-01-21 21:10:00,
2013-01-21 15:15:00,12.0,-0.3,30.18,NW,315,3.1,4.3,57,0.00,,---,0.00,VWS V14.01,2013-01-21 21:15:00,
2013-01-21 15:20:00,12.0,-0.3,30.15,NW,315,2.7,2.7,57,0.00,,---,0.00,VWS V14.01,2013-01-21 21:20:00,
2013-01-21 15:25:00,12.4,0.1,30.15,NW,315,4.9,4.9,57,0.00,,---,0.00,VWS V14.01,2013-01-21 21:25:00,
2013-01-21 15:30:00,12.7,0.4,30.15,WNW,292,2.5,3.4,57,0.00,,---,0.00,VWS V14.01,2013-01-21 21:30:00,
2013-01-21 15:35:00,13.1,0.7,30.15,West,270,2.0,2.0,57,0.00,,---,0.00,VWS V14.01,2013-01-21 21:35:00,
2013-01-21 15:40:00,13.5,1.1,30.15,WNW,292,1.6,5.4,57,0.00,,---,0.00,VWS V14.01,2013-01-21 21:40:00,
2013-01-21 15:45:00,13.5,1.1,30.15,West,270,2.0,3.1,57,0.00,,---,0.00,VWS V14.01,2013-01-21 21:45:00,
2013-01-21 15:50:00,13.6,1.2,30.15,NNW,338,2.9,2.9,57,0.00,,---,0.00,VWS V14.01,2013-01-21 21:50:00,
2013-01-21 15:55:00,13.6,1.2,30.15,NW,315,4.3,4.9,57,0.00,,---,0.00,VWS V14.01,2013-01-21 21:55:00,
2013-01-21 16:00:00,13.6,1.2,30.15,NNW,338,2.7,2.7,57,0.00,,---,0.00,VWS V14.01,2013-01-21 22:00:00,
2013-01-21 16:05:00,13.6,1.2,30.15,WNW,292,2.9,2.9,57,0.00,,---,0.00,VWS V14.01,2013-01-21 22:05:00,
2013-01-21 16:10:00,13.5,1.1,30.15,WNW,292,3.1,5.6,57,0.00,,---,0.00,VWS V14.01,2013-01-21 22:10:00,
2013-01-21 16:15:00,13.5,1.1,30.15,WNW,292,5.4,6.0,57,0.00,,---,0.00,VWS V14.01,2013-01-21 22:15:00,
2013-01-21 16:20:00,13.3,0.9,30.15,NW,315,4.9,4.9,57,0.00,,---,0.00,VWS V14.01,2013-01-21 22:20:00,
2013-01-21 16:25:00,13.3,0.9,30.15,NNW,338,2.5,2.5,57,0.00,,---,0.00,VWS V14.01,2013-01-21 22:25:00,
2013-01-21 16:30:00,13.3,0.9,30.15,WNW,292,4.0,4.0,57,0.00,,---,0.00,VWS V14.01,2013-01-21 22:30:00,
2013-01-21 16:35:00,13.3,0.9,30.15,NW,315,2.5,3.6,57,0.00,,---,0.00,VWS V14.01,2013-01-21 22:35:00,
2013-01-21 16:40:00,13.1,0.7,30.15,WNW,292,3.8,3.8,57,0.00,,---,0.00,VWS V14.01,2013-01-21 22:40:00,
2013-01-21 16:46:00,13.1,0.7,30.15,WNW,292,3.8,3.8,57,0.00,,---,0.00,VWS V14.01,2013-01-21 22:46:00,
2013-01-21 16:51:00,13.1,0.7,30.15,NNW,338,2.9,2.9,57,0.00,,---,0.00,VWS V14.01,2013-01-21 22:51:00,
2013-01-21 16:56:00,13.1,0.7,30.15,WNW,292,4.0,4.0,57,0.00,,---,0.00,VWS V14.01,2013-01-21 22:56:00,
2013-01-21 17:01:00,13.1,0.7,30.15,West,270,3.4,3.4,57,0.00,,---,0.00,VWS V14.01,2013-01-21 23:01:00,
2013-01-21 17:06:00,13.1,0.7,30.15,WNW,292,2.0,2.0,57,0.00,,---,0.00,VWS V14.01,2013-01-21 23:06:00,
2013-01-21 17:11:00,13.3,0.9,30.12,NNW,338,4.3,4.3,57,0.00,,---,0.00,VWS V14.01,2013-01-21 23:11:00,
2013-01-21 17:16:00,13.3,0.9,30.12,NW,315,4.9,4.9,57,0.00,,---,0.00,VWS V14.01,2013-01-21 23:16:00,
2013-01-21 17:21:00,13.3,0.9,30.12,NNW,338,3.8,3.8,57,0.00,,---,0.00,VWS V14.01,2013-01-21 23:21:00,
2013-01-21 17:26:00,13.3,0.9,30.12,West,270,2.7,2.7,57,0.00,,---,0.00,VWS V14.01,2013-01-21 23:26:00,
2013-01-21 17:31:00,13.3,0.9,30.12,NE,45,3.4,3.4,57,0.00,,---,0.00,VWS V14.01,2013-01-21 23:31:00,
2013-01-21 17:36:00,13.3,0.9,30.12,NNW,338,2.7,2.7,57,0.00,,---,0.00,VWS V14.01,2013-01-21 23:36:00,
2013-01-21 17:41:00,13.3,0.9,30.12,WNW,292,6.0,6.0,57,0.00,,---,0.00,VWS V14.01,2013-01-21 23:41:00,
2013-01-21 17:46:00,13.3,0.9,30.12,NNW,338,2.0,3.4,57,0.00,,---,0.00,VWS V14.01,2013-01-21 23:46:00,
2013-01-21 17:51:00,13.3,0.9,30.12,WNW,292,2.9,4.9,57,0.00,,---,0.00,VWS V14.01,2013-01-21 23:51:00,
2013-01-21 17:56:00,13.3,0.9,30.12,NW,315,1.3,2.9,57,0.00,,---,0.00,VWS V14.01,2013-01-21 23:56:00,
2013-01-21 18:01:00,13.3,0.9,30.12,WNW,292,2.5,2.5,57,0.00,,---,0.00,VWS V14.01,2013-01-22 00:01:00,
2013-01-21 18:06:00,13.3,0.9,30.12,NW,315,3.8,3.8,57,0.00,,---,0.00,VWS V14.01,2013-01-22 00:06:00,
2013-01-21 18:11:00,13.1,0.7,30.12,NW,315,1.3,1.3,57,0.00,,---,0.00,VWS V14.01,2013-01-22 00:11:00,
2013-01-21 18:16:00,13.3,0.9,30.12,WNW,292,2.2,2.2,57,0.00,,---,0.00,VWS V14.01,2013-01-22 00:16:00,
2013-01-21 18:21:00,13.1,0.7,30.12,NNW,338,2.9,2.9,57,0.00,,---,0.00,VWS V14.01,2013-01-22 00:21:00,
2013-01-21 18:26:00,13.1,0.7,30.12,WNW,292,3.4,3.4,57,0.00,,---,0.00,VWS V14.01,2013-01-22 00:26:00,
2013-01-21 18:31:00,12.9,0.6,30.12,SSE,158,0.0,0.0,57,0.00,,---,0.00,VWS V14.01,2013-01-22 00:31:00,
2013-01-21 18:36:00,12.9,0.6,30.12,NNW,338,2.9,2.9,57,0.00,,---,0.00,VWS V14.01,2013-01-22 00:36:00,
2013-01-21 18:41:00,12.7,0.4,30.12,NNE,22,1.1,1.1,57,0.00,,---,0.00,VWS V14.01,2013-01-22 00:41:00,
2013-01-21 18:46:00,12.7,0.4,30.12,NNW,338,2.0,2.0,57,0.00,,---,0.00,VWS V14.01,2013-01-22 00:46:00,
2013-01-21 18:51:00,12.6,0.2,30.12,WNW,292,2.9,2.9,57,0.00,,---,0.00,VWS V14.01,2013-01-22 00:51:00,
2013-01-21 18:56:00,12.4,0.1,30.12,WNW,292,2.9,2.9,57,0.00,,---,0.00,VWS V14.01,2013-01-22 00:56:00,
2013-01-21 19:01:00,12.4,0.1,30.12,West,270,1.3,1.3,57,0.00,,---,0.00,VWS V14.01,2013-01-22 01:01:00,
2013-01-21 19:06:00,12.2,-0.1,30.12,NNW,338,1.1,1.1,57,0.00,,---,0.00,VWS V14.01,2013-01-22 01:06:00,
2013-01-21 19:11:00,12.2,-0.1,30.12,NW,315,0.0,0.0,57,0.00,,---,0.00,VWS V14.01,2013-01-22 01:11:00,
2013-01-21 19:16:00,12.2,-0.1,30.12,South,180,1.1,1.1,57,0.00,,---,0.00,VWS V14.01,2013-01-22 01:16:00,
2013-01-21 19:21:00,12.2,-0.1,30.12,NNE,22,2.0,2.0,57,0.00,,---,0.00,VWS V14.01,2013-01-22 01:21:00,
2013-01-21 19:26:00,12.4,0.1,30.12,NE,45,2.0,2.9,57,0.00,,---,0.00,VWS V14.01,2013-01-22 01:26:00,
2013-01-21 19:31:00,12.4,0.1,30.12,SSE,158,2.5,3.1,57,0.00,,---,0.00,VWS V14.01,2013-01-22 01:31:00,
2013-01-21 19:36:00,12.6,0.2,30.12,NNW,338,2.5,2.5,57,0.00,,---,0.00,VWS V14.01,2013-01-22 01:36:00,
2013-01-21 19:41:00,12.6,0.2,30.12,NNW,338,2.0,2.0,57,0.00,,---,0.00,VWS V14.01,2013-01-22 01:41:00,
2013-01-21 19:46:00,12.6,0.2,30.12,NNE,22,1.1,1.1,57,0.00,,---,0.00,VWS V14.01,2013-01-22 01:46:00,
2013-01-21 19:51:00,12.6,0.2,30.12,NNE,22,0.9,2.9,57,0.00,,---,0.00,VWS V14.01,2013-01-22 01:51:00,
2013-01-21 19:56:00,12.6,0.2,30.12,NNW,338,2.5,2.5,57,0.00,,---,0.00,VWS V14.01,2013-01-22 01:56:00,
2013-01-21 20:01:00,12.4,0.1,30.12,NNW,338,1.3,1.3,57,0.00,,---,0.00,VWS V14.01,2013-01-22 02:01:00,
2013-01-21 20:06:00,12.4,0.1,30.12,NNE,22,2.5,2.5,57,0.00,,---,0.00,VWS V14.01,2013-01-22 02:06:00,
2013-01-21 20:11:00,12.2,-0.1,30.12,NNE,22,1.6,1.6,57,0.00,,---,0.00,VWS V14.01,2013-01-22 02:11:00,
2013-01-21 20:16:00,12.2,-0.1,30.12,NNW,338,2.5,2.5,57,0.00,,---,0.00,VWS V14.01,2013-01-22 02:16:00,
2013-01-21 20:22:00,12.2,-0.1,30.12,NNW,338,1.6,1.6,57,0.00,,---,0.00,VWS V14.01,2013-01-22 02:22:00,
2013-01-21 20:27:00,12.2,-0.1,30.12,ENE,68,1.6,1.6,57,0.00,,---,0.00,VWS V14.01,2013-01-22 02:27:00,
2013-01-21 20:32:00,12.2,-0.1,30.12,NNW,338,3.1,3.1,57,0.00,,---,0.00,VWS V14.01,2013-01-22 02:32:00,
2013-01-21 20:37:00,12.4,0.1,30.12,NE,45,0.9,1.1,57,0.00,,---,0.00,VWS V14.01,2013-01-22 02:37:00,
2013-01-21 20:42:00,12.4,0.1,30.12,NNE,22,2.2,2.2,57,0.00,,---,0.00,VWS V14.01,2013-01-22 02:42:00,
2013-01-21 20:47:00,12.4,0.1,30.12,NE,45,3.8,3.8,57,0.00,,---,0.00,VWS V14.01,2013-01-22 02:47:00,
2013-01-21 20:52:00,12.4,0.1,30.12,ENE,68,4.0,4.3,57,0.00,,---,0.00,VWS V14.01,2013-01-22 02:52:00,
2013-01-21 20:57:00,12.4,0.1,30.12,NNE,22,1.6,3.1,57,0.00,,---,0.00,VWS V14.01,2013-01-22 02:57:00,
2013-01-21 21:02:00,12.4,0.1,30.12,East,90,1.1,2.9,57,0.00,,---,0.00,VWS V14.01,2013-01-22 03:02:00,
2013-01-21 21:07:00,12.2,-0.1,30.12,North,0,3.4,3.8,57,0.00,,---,0.00,VWS V14.01,2013-01-22 03:07:00,
2013-01-21 21:12:00,12.2,-0.1,30.12,NNW,338,3.6,3.6,57,0.00,,---,0.00,VWS V14.01,2013-01-22 03:12:00,
2013-01-21 21:17:00,12.2,-0.1,30.12,NNE,22,3.1,3.4,57,0.00,,---,0.00,VWS V14.01,2013-01-22 03:17:00,
2013-01-21 21:22:00,12.0,-0.3,30.12,ENE,68,1.6,2.0,57,0.00,,---,0.00,VWS V14.01,2013-01-22 03:22:00,
2013-01-21 21:27:00,12.0,-0.3,30.12,ENE,68,3.1,3.1,57,0.00,,---,0.00,VWS V14.01,2013-01-22 03:27:00,
2013-01-21 21:32:00,12.0,-0.3,30.12,ENE,68,4.5,4.5,57,0.00,,---,0.00,VWS V14.01,2013-01-22 03:32:00,
2013-01-21 21:37:00,11.8,-0.4,30.12,ENE,68,3.4,3.8,57,0.00,,---,0.00,VWS V14.01,2013-01-22 03:37:00,
2013-01-21 21:42:00,11.7,-0.6,30.12,NNE,22,2.0,3.4,57,0.00,,---,0.00,VWS V14.01,2013-01-22 03:42:00,
2013-01-21 21:47:00,11.7,-0.6,30.12,ENE,68,3.4,4.0,57,0.00,,---,0.00,VWS V14.01,2013-01-22 03:47:00,
2013-01-21 21:52:00,11.5,-0.8,30.12,ENE,68,3.6,3.6,57,0.00,,---,0.00,VWS V14.01,2013-01-22 03:52:00,
2013-01-21 21:57:00,11.3,-1.0,30.12,ESE,112,2.5,2.5,57,0.00,,---,0.00,VWS V14.01,2013-01-22 03:57:00,
2013-01-21 22:02:00,11.3,-1.0,30.12,ESE,112,2.7,3.1,57,0.00,,---,0.00,VWS V14.01,2013-01-22 04:02:00,
2013-01-21 22:07:00,11.1,-1.1,30.12,East,90,0.0,0.0,57,0.00,,---,0.00,VWS V14.01,2013-01-22 04:07:00,
2013-01-21 22:12:00,11.1,-1.1,30.12,East,90,2.5,2.5,57,0.00,,---,0.00,VWS V14.01,2013-01-22 04:12:00,
2013-01-21 22:17:00,11.1,-1.1,30.12,ESE,112,2.0,2.0,57,0.00,,---,0.00,VWS V14.01,2013-01-22 04:17:00,
2013-01-21 22:22:00,11.1,-1.1,30.12,East,90,1.6,2.0,57,0.00,,---,0.00,VWS V14.01,2013-01-22 04:22:00,
2013-01-21 22:27:00,10.9,-1.3,30.12,East,90,0.0,0.0,57,0.00,,---,0.00,VWS V14.01,2013-01-22 04:27:00,
2013-01-21 22:32:00,10.9,-1.3,30.12,ENE,68,2.0,2.0,57,0.00,,---,0.00,VWS V14.01,2013-01-22 04:32:00,
2013-01-21 22:37:00,10.9,-1.3,30.12,ENE,68,2.7,2.9,57,0.00,,---,0.00,VWS V14.01,2013-01-22 04:37:00,
2013-01-21 22:42:00,11.1,-1.1,30.12,NNE,22,1.3,1.3,57,0.00,,---,0.00,VWS V14.01,2013-01-22 04:42:00,
2013-01-21 22:47:00,10.9,-1.3,30.12,ESE,112,1.3,1.3,57,0.00,,---,0.00,VWS V14.01,2013-01-22 04:47:00,
2013-01-21 22:52:00,10.9,-1.3,30.12,East,90,0.0,0.0,57,0.00,,---,0.00,VWS V14.01,2013-01-22 04:52:00,
2013-01-21 22:57:00,10.9,-1.3,30.12,ENE,68,1.3,2.7,57,0.00,,---,0.00,VWS V14.01,2013-01-22 04:57:00,
2013-01-21 23:00:00,10.9,-1.3,30.12,NE,45,2.7,2.7,57,0.00,,---,0.00,VWS V14.01,2013-01-22 05:00:00,
2013-01-21 23:05:00,10.9,-1.3,30.12,NE,45,0.0,1.3,57,0.00,,---,0.00,VWS V14.01,2013-01-22 05:05:00,
2013-01-21 23:10:00,10.9,-1.3,30.12,East,90,0.9,1.1,57,0.00,,---,0.00,VWS V14.01,2013-01-22 05:10:00,
2013-01-21 23:15:00,10.9,-1.3,30.12,NE,45,0.0,0.0,57,0.00,,---,0.00,VWS V14.01,2013-01-22 05:15:00,
2013-01-21 23:20:00,10.9,-1.3,30.12,SSE,158,0.9,1.3,57,0.00,,---,0.00,VWS V14.01,2013-01-22 05:20:00,
2013-01-21 23:25:00,10.9,-1.3,30.12,ENE,68,1.3,1.6,57,0.00,,---,0.00,VWS V14.01,2013-01-22 05:25:00,
2013-01-21 23:30:00,11.1,-1.1,30.12,NNE,22,0.0,1.1,57,0.00,,---,0.00,VWS V14.01,2013-01-22 05:30:00,
2013-01-21 23:35:00,11.1,-1.1,30.12,NW,315,1.1,1.1,57,0.00,,---,0.00,VWS V14.01,2013-01-22 05:35:00,
2013-01-21 23:40:00,11.3,-1.0,30.12,NNE,22,1.3,1.3,57,0.00,,---,0.00,VWS V14.01,2013-01-22 05:40:00,
2013-01-21 23:45:00,11.5,-0.8,30.12,NE,45,1.6,2.7,57,0.00,,---,0.00,VWS V14.01,2013-01-22 05:45:00,
2013-01-21 23:51:00,11.5,-0.8,30.12,WNW,292,0.0,0.0,57,0.00,,---,0.00,VWS V14.01,2013-01-22 05:51:00,
2013-01-21 23:56:00,11.7,-0.6,30.12,NNE,22,0.0,0.0,57,0.00,,---,0.00,VWS V14.01,2013-01-22 05:56:00,